Wind Cave National Park, SD

4:49 PM MDT on July 24, 2016 (GMT -0600)
Hay Creek Road | | Change Station

Elev 5325 ft 43.70 °N, 103.67 °W | Updated 7 seconds ago

Clear
Clear
78.4 °F
Feels Like 78 °F
N
1.8
Wind Variable Wind from ESE
Gusts 2.5 mph

Today
High -- | Low -- °F
--% Chance of Precip.
Yesterday
High -- | Low -- °F
Precip. -- in
Pressure 30.06 in
Visibility 10.0 miles
Clouds Clear
Heat Index 78 °F
Dew Point 44 °F
Humidity 30%
Rainfall 0.07 in
Snow Depth Not available.
5:35 AM 8:25 PM
Waning Gibbous, 72% visible
METAR KCUT 242153Z AUTO 15010G14KT 100V170 10SM CLR 25/05 A3025 RMK AO2 SLP177 T02500050 $
Pressure 30.06 in
Visibility 10.0 miles
Clouds Clear
Heat Index 78 °F
Dew Point 44 °F
Humidity 30%
Rainfall 0.07 in
Snow Depth Not available.
5:35 AM 8:25 PM
Waning Gibbous, 72% visible
METAR KCUT 242153Z AUTO 15010G14KT 100V170 10SM CLR 25/05 A3025 RMK AO2 SLP177 T02500050 $

10-Day Weather Forecast

Almanac

Astronomy

Jul. 24, 2016 Rise Set
Actual Time
Civil Twilight
Nautical Twilight
Astronomical Twilight
Moon
Length of Visible Light
Length of Day
Tomorrow will be .
, % of the Moon is Illuminated

Today's Extremes

State Highs State Lows

Community

WunderPhotos

Upload Photos

1,927,207 photos uploaded!

WunderBlog® & News

Nearby

Air Quality

  Air Quality AQ Index Pollutant
Not available.

Snow Depth

Station Depth Elevation

Earthquake Activity

City Distance Mag. Time & Date
Minimum magnitude displayed is 2.5.

Coastal Water Temperatures

Place Temperature

Stations

Nearby Weather Stations

Station Location Temp. Windchill Dew Point Humidity Wind Precip. Elev Updated Type
                   

Watches & Warnings

There are currently no watches in effect.